Wetterdaten: Samstag, 02.06.2012
Datum Zeit Temperatur Luftfeuchte Regen Wind Richtung Richtung Taupunkt Windchill Windben
02.06.2012 00:00 11,3 C 89 % 0,0 l/m 0,8 km/h (0 Bft) NO 45 9,6 C 11,0 C 0,0 km/h (0 Bft)
02.06.2012 00:05 11,3 C 89 % 0,0 l/m 0,5 km/h (0 Bft) NO 45 9,6 C 11,0 C 0,0 km/h (0 Bft)
02.06.2012 00:10 11,2 C 90 % 0,0 l/m 0,0 km/h (0 Bft) N 360 9,6 C 11,0 C 0,0 km/h (0 Bft)
02.06.2012 00:15 11,2 C 90 % 0,7 l/m 0,3 km/h (0 Bft) N 360 9,6 C 11,0 C 1,9 km/h (1 Bft)
02.06.2012 00:20 11,1 C 91 % 0,0 l/m 0,5 km/h (0 Bft) N 360 9,7 C 11,0 C 3,2 km/h (1 Bft)
02.06.2012 00:25 11,1 C 91 % 0,0 l/m 0,3 km/h (0 Bft) N-NO 22 9,7 C 11,0 C 0,0 km/h (0 Bft)
02.06.2012 00:30 11,2 C 91 % 0,0 l/m 0,5 km/h (0 Bft) N-NO 22 9,8 C 11,0 C 3,5 km/h (1 Bft)
02.06.2012 00:35 11,1 C 91 % 0,0 l/m 0,8 km/h (0 Bft) O-NO 67 9,7 C 11,0 C 1,9 km/h (1 Bft)
02.06.2012 00:40 11,2 C 92 % 0,0 l/m 0,8 km/h (0 Bft) N-NO 22 9,9 C 11,0 C 4,3 km/h (1 Bft)
02.06.2012 00:45 11,1 C 92 % 0,0 l/m 0,6 km/h (0 Bft) N-NO 22 9,8 C 11,0 C 0,0 km/h (0 Bft)
02.06.2012 00:50 11,1 C 92 % 0,0 l/m 0,6 km/h (0 Bft) N 360 9,8 C 11,0 C 4,0 km/h (1 Bft)
02.06.2012 00:55 11,1 C 92 % 0,7 l/m 0,8 km/h (0 Bft) N-NW 337 9,8 C 10,9 C 0,0 km/h (0 Bft)
02.06.2012 01:00 11,1 C 92 % 0,0 l/m 0,5 km/h (0 Bft) N 360 9,8 C 10,9 C 0,0 km/h (0 Bft)
02.06.2012 01:05 11,1 C 92 % 0,0 l/m 0,2 km/h (0 Bft) O-SO 112 9,8 C 10,9 C 0,0 km/h (0 Bft)
02.06.2012 01:10 11,1 C 92 % 0,0 l/m 0,0 km/h (0 Bft) O-SO 112 9,8 C 10,9 C 2,3 km/h (1 Bft)
02.06.2012 01:15 11,1 C 92 % 0,0 l/m 0,2 km/h (0 Bft) NO 45 9,8 C 11,0 C 0,0 km/h (0 Bft)
02.06.2012 01:20 11,1 C 92 % 0,0 l/m 0,5 km/h (0 Bft) NO 45 9,8 C 11,0 C 0,0 km/h (0 Bft)
02.06.2012 01:25 11,1 C 93 % 0,0 l/m 0,3 km/h (0 Bft) N 360 10,0 C 11,0 C 2,6 km/h (1 Bft)
02.06.2012 01:30 11,1 C 93 % 0,0 l/m 0,3 km/h (0 Bft) O-SO 112 10,0 C 11,0 C 0,0 km/h (0 Bft)
02.06.2012 01:35 11,1 C 93 % 0,0 l/m 0,3 km/h (0 Bft) N-NO 22 10,0 C 11,0 C 0,0 km/h (0 Bft)
02.06.2012 01:40 11,0 C 93 % 0,0 l/m 0,2 km/h (0 Bft) N-NO 22 9,9 C 11,0 C 0,0 km/h (0 Bft)
02.06.2012 01:45 11,0 C 93 % 0,0 l/m 0,0 km/h (0 Bft) N-NW 337 9,9 C 11,0 C 0,0 km/h (0 Bft)
02.06.2012 01:50 11,0 C 93 % 0,0 l/m 0,2 km/h (0 Bft) S-SW 202 9,9 C 10,9 C 0,0 km/h (0 Bft)
02.06.2012 01:55 11,0 C 93 % 0,0 l/m 0,3 km/h (0 Bft) N 360 9,9 C 10,9 C 1,6 km/h (1 Bft)
02.06.2012 02:00 11,0 C 93 % 0,0 l/m 0,3 km/h (0 Bft) S 180 9,9 C 10,9 C 0,0 km/h (0 Bft)
02.06.2012 02:05 10,9 C 93 % 0,0 l/m 0,2 km/h (0 Bft) N-NW 337 9,8 C 10,9 C 0,0 km/h (0 Bft)
02.06.2012 02:10 10,9 C 94 % 0,0 l/m 0,5 km/h (0 Bft) N-NO 22 10,0 C 10,9 C 0,0 km/h (0 Bft)
02.06.2012 02:15 10,9 C 94 % 0,0 l/m 0,6 km/h (0 Bft) S-SO 157 10,0 C 10,9 C 0,0 km/h (0 Bft)
02.06.2012 02:20 11,0 C 93 % 0,0 l/m 0,3 km/h (0 Bft) N 360 9,9 C 10,9 C 0,0 km/h (0 Bft)
02.06.2012 02:25 11,0 C 93 % 0,0 l/m 0,0 km/h (0 Bft) N-NO 22 9,9 C 10,9 C 0,0 km/h (0 Bft)
02.06.2012 02:30 10,9 C 94 % 0,0 l/m 0,3 km/h (0 Bft) S-SO 157 10,0 C 10,9 C 0,0 km/h (0 Bft)
02.06.2012 02:35 10,9 C 94 % 0,0 l/m 0,3 km/h (0 Bft) NW 315 10,0 C 10,9 C 0,0 km/h (0 Bft)
02.06.2012 02:40 10,9 C 94 % 0,0 l/m 0,0 km/h (0 Bft) N 360 10,0 C 10,9 C 0,0 km/h (0 Bft)
02.06.2012 02:45 10,9 C 94 % 0,0 l/m 0,0 km/h (0 Bft) O-SO 112 10,0 C 10,9 C 0,0 km/h (0 Bft)
02.06.2012 02:50 10,9 C 94 % 0,0 l/m 0,0 km/h (0 Bft) N-NW 337 10,0 C 10,9 C 0,0 km/h (0 Bft)
02.06.2012 02:55 11,0 C 94 % 0,0 l/m 0,0 km/h (0 Bft) N-NW 337 10,1 C 10,9 C 0,0 km/h (0 Bft)
02.06.2012 03:00 10,9 C 94 % 0,0 l/m 0,0 km/h (0 Bft) NO 45 10,0 C 10,9 C 0,0 km/h (0 Bft)
02.06.2012 03:05 11,0 C 94 % 0,0 l/m 0,2 km/h (0 Bft) N 360 10,1 C 10,9 C 1,6 km/h (1 Bft)
02.06.2012 03:10 11,0 C 94 % 0,0 l/m 0,2 km/h (0 Bft) N-NW 337 10,1 C 10,9 C 0,0 km/h (0 Bft)
02.06.2012 03:15 10,9 C 94 % 0,0 l/m 0,2 km/h (0 Bft) N-NW 337 10,0 C 10,9 C 0,0 km/h (0 Bft)
02.06.2012 03:20 10,9 C 94 % 0,0 l/m 0,0 km/h (0 Bft) W-NW 292 10,0 C 10,9 C 0,0 km/h (0 Bft)
02.06.2012 03:25 10,9 C 94 % 0,0 l/m 0,0 km/h (0 Bft) N 360 10,0 C 10,8 C 0,0 km/h (0 Bft)
02.06.2012 03:30 10,9 C 94 % 0,0 l/m 0,0 km/h (0 Bft) N 360 10,0 C 10,8 C 0,0 km/h (0 Bft)
02.06.2012 03:35 10,9 C 94 % 0,0 l/m 0,0 km/h (0 Bft) O-NO 67 10,0 C 10,8 C 0,0 km/h (0 Bft)
02.06.2012 03:40 10,9 C 94 % 0,0 l/m 0,0 km/h (0 Bft) N 360 10,0 C 10,8 C 0,0 km/h (0 Bft)
02.06.2012 03:45 10,9 C 94 % 0,0 l/m 0,0 km/h (0 Bft) N 360 10,0 C 10,8 C 0,0 km/h (0 Bft)
02.06.2012 03:50 10,9 C 94 % 0,0 l/m 0,0 km/h (0 Bft) W-SW 247 10,0 C 10,8 C 0,0 km/h (0 Bft)
02.06.2012 03:55 10,9 C 94 % 0,0 l/m 0,0 km/h (0 Bft) NO 45 10,0 C 10,8 C 0,0 km/h (0 Bft)
02.06.2012 04:00 10,9 C 94 % 0,0 l/m 0,0 km/h (0 Bft) N 360 10,0 C 10,8 C 0,0 km/h (0 Bft)
02.06.2012 04:05 10,9 C 94 % 0,0 l/m 0,0 km/h (0 Bft) S 180 10,0 C 10,8 C 0,0 km/h (0 Bft)
02.06.2012 04:10 10,9 C 94 % 0,0 l/m 0,0 km/h (0 Bft) N-NW 337 10,0 C 10,8 C 0,0 km/h (0 Bft)
02.06.2012 04:15 10,9 C 94 % 0,0 l/m 0,0 km/h (0 Bft) N-NW 337 10,0 C 10,8 C 0,0 km/h (0 Bft)
02.06.2012 04:20 10,9 C 94 % 0,0 l/m 0,0 km/h (0 Bft) N-NO 22 10,0 C 10,8 C 0,0 km/h (0 Bft)
02.06.2012 04:25 10,9 C 94 % 0,0 l/m 0,0 km/h (0 Bft) NO 45 10,0 C 10,8 C 0,0 km/h (0 Bft)
02.06.2012 04:30 10,9 C 94 % 0,0 l/m 0,0 km/h (0 Bft) NO 45 10,0 C 10,8 C 0,0 km/h (0 Bft)
02.06.2012 04:35 10,9 C 94 % 0,0 l/m 0,0 km/h (0 Bft) NO 45 10,0 C 10,8 C 0,0 km/h (0 Bft)
02.06.2012 04:40 11,0 C 94 % 0,0 l/m 0,0 km/h (0 Bft) O 90 10,1 C 10,8 C 0,0 km/h (0 Bft)
02.06.2012 04:45 11,0 C 94 % 0,0 l/m 0,0 km/h (0 Bft) N 360 10,1 C 10,8 C 0,0 km/h (0 Bft)
02.06.2012 04:50 11,0 C 94 % 0,0 l/m 0,0 km/h (0 Bft) N-NO 22 10,1 C 10,8 C 0,0 km/h (0 Bft)
02.06.2012 04:55 11,0 C 94 % 0,0 l/m 0,0 km/h (0 Bft) NW 315 10,1 C 10,8 C 0,0 km/h (0 Bft)
02.06.2012 05:00 11,0 C 94 % 0,0 l/m 0,0 km/h (0 Bft) N-NO 22 10,1 C 10,8 C 0,0 km/h (0 Bft)
02.06.2012 05:05 11,0 C 94 % 0,0 l/m 0,0 km/h (0 Bft) N-NO 22 10,1 C 10,8 C 0,0 km/h (0 Bft)
02.06.2012 05:10 11,0 C 94 % 0,0 l/m 0,0 km/h (0 Bft) S-SW 202 10,1 C 10,8 C 0,0 km/h (0 Bft)
02.06.2012 05:15 11,0 C 94 % 0,0 l/m 0,0 km/h (0 Bft) S 180 10,1 C 10,9 C 0,0 km/h (0 Bft)
02.06.2012 05:20 11,0 C 94 % 0,0 l/m 0,0 km/h (0 Bft) N-NO 22 10,1 C 10,9 C 0,0 km/h (0 Bft)
02.06.2012 05:25 11,0 C 94 % 0,0 l/m 0,0 km/h (0 Bft) O-SO 112 10,1 C 10,9 C 0,0 km/h (0 Bft)
02.06.2012 05:30 11,0 C 95 % 0,0 l/m 0,0 km/h (0 Bft) N 360 10,2 C 10,9 C 0,0 km/h (0 Bft)
02.06.2012 05:35 11,1 C 95 % 0,0 l/m 0,0 km/h (0 Bft) N-NO 22 10,3 C 11,0 C 0,0 km/h (0 Bft)
02.06.2012 05:40 11,1 C 95 % 0,0 l/m 0,0 km/h (0 Bft) N-NW 337 10,3 C 11,0 C 0,0 km/h (0 Bft)
02.06.2012 05:45 11,1 C 95 % 0,0 l/m 0,0 km/h (0 Bft) W-NW 292 10,3 C 11,0 C 0,0 km/h (0 Bft)
02.06.2012 05:50 11,2 C 95 % 0,0 l/m 0,0 km/h (0 Bft) S 180 10,4 C 11,0 C 0,0 km/h (0 Bft)
02.06.2012 05:55 11,2 C 95 % 0,0 l/m 0,0 km/h (0 Bft) O 90 10,4 C 11,0 C 0,0 km/h (0 Bft)
02.06.2012 06:00 11,3 C 95 % 0,0 l/m 0,2 km/h (0 Bft) O-SO 112 10,5 C 11,1 C 0,0 km/h (0 Bft)
02.06.2012 06:05 11,3 C 95 % 0,0 l/m 0,3 km/h (0 Bft) N-NO 22 10,5 C 11,2 C 0,0 km/h (0 Bft)
02.06.2012 06:10 11,3 C 95 % 0,0 l/m 0,2 km/h (0 Bft) O-NO 67 10,5 C 11,2 C 0,0 km/h (0 Bft)
02.06.2012 06:15 11,4 C 95 % 0,0 l/m 0,0 km/h (0 Bft) O 90 10,6 C 11,3 C 0,0 km/h (0 Bft)
02.06.2012 06:20 11,4 C 95 % 0,0 l/m 0,2 km/h (0 Bft) N-NO 22 10,6 C 11,3 C 0,0 km/h (0 Bft)
02.06.2012 06:25 11,4 C 95 % 0,0 l/m 0,3 km/h (0 Bft) O-SO 112 10,6 C 11,3 C 1,9 km/h (1 Bft)
02.06.2012 06:30 11,4 C 95 % 0,0 l/m 0,2 km/h (0 Bft) S-SW 202 10,6 C 11,4 C 0,0 km/h (0 Bft)
02.06.2012 06:35 11,4 C 95 % 0,0 l/m 0,2 km/h (0 Bft) N-NW 337 10,6 C 11,4 C 0,0 km/h (0 Bft)
02.06.2012 06:40 11,4 C 95 % 0,0 l/m 0,0 km/h (0 Bft) N 360 10,6 C 11,4 C 0,0 km/h (0 Bft)
02.06.2012 06:45 11,4 C 95 % 0,0 l/m 0,0 km/h (0 Bft) N 360 10,6 C 11,4 C 0,0 km/h (0 Bft)
02.06.2012 06:50 11,4 C 95 % 0,0 l/m 0,2 km/h (0 Bft) O 90 10,6 C 11,4 C 1,9 km/h (1 Bft)
02.06.2012 06:55 11,4 C 95 % 0,0 l/m 0,2 km/h (0 Bft) NO 45 10,6 C 11,4 C 0,0 km/h (0 Bft)
02.06.2012 07:00 11,5 C 95 % 0,0 l/m 0,2 km/h (0 Bft) N-NO 22 10,7 C 11,5 C 0,0 km/h (0 Bft)
02.06.2012 07:05 11,5 C 95 % 0,0 l/m 0,0 km/h (0 Bft) N-NO 22 10,7 C 11,5 C 0,0 km/h (0 Bft)
02.06.2012 07:10 11,4 C 95 % 0,0 l/m 0,0 km/h (0 Bft) N-NW 337 10,6 C 11,5 C 0,0 km/h (0 Bft)
02.06.2012 07:15 11,4 C 95 % 0,0 l/m 0,2 km/h (0 Bft) N 360 10,6 C 11,5 C 0,0 km/h (0 Bft)
02.06.2012 07:20 11,5 C 95 % 0,0 l/m 0,3 km/h (0 Bft) N 360 10,7 C 11,5 C 2,4 km/h (1 Bft)
02.06.2012 07:25 11,5 C 95 % 0,0 l/m 0,2 km/h (0 Bft) N 360 10,7 C 11,6 C 0,0 km/h (0 Bft)
02.06.2012 07:30 11,5 C 95 % 0,0 l/m 0,2 km/h (0 Bft) N 360 10,7 C 11,6 C 0,0 km/h (0 Bft)
02.06.2012 07:35 11,5 C 95 % 0,0 l/m 0,0 km/h (0 Bft) O 90 10,7 C 11,6 C 0,0 km/h (0 Bft)
02.06.2012 07:40 11,7 C 95 % 0,0 l/m 0,0 km/h (0 Bft) N 360 10,9 C 11,7 C 0,0 km/h (0 Bft)
02.06.2012 07:45 11,7 C 95 % 0,0 l/m 0,0 km/h (0 Bft) N 360 10,9 C 11,7 C 0,0 km/h (0 Bft)
02.06.2012 07:50 11,7 C 95 % 0,0 l/m 0,0 km/h (0 Bft) S-SO 157 10,9 C 11,9 C 0,0 km/h (0 Bft)
02.06.2012 07:55 11,7 C 95 % 0,0 l/m 0,2 km/h (0 Bft) N 360 10,9 C 11,9 C 0,0 km/h (0 Bft)
02.06.2012 08:00 11,9 C 95 % 0,0 l/m 0,5 km/h (0 Bft) N-NO 22 11,1 C 12,0 C 0,0 km/h (0 Bft)
02.06.2012 08:05 11,9 C 95 % 0,0 l/m 0,3 km/h (0 Bft) N-NO 22 11,1 C 12,2 C 0,0 km/h (0 Bft)
02.06.2012 08:10 11,9 C 95 % 0,0 l/m 0,0 km/h (0 Bft) N 360 11,1 C 12,3 C 0,0 km/h (0 Bft)
02.06.2012 08:15 12,0 C 95 % 0,0 l/m 0,0 km/h (0 Bft) N-NO 22 11,2 C 12,4 C 0,0 km/h (0 Bft)
02.06.2012 08:20 12,1 C 94 % 0,0 l/m 0,0 km/h (0 Bft) N-NW 337 11,2 C 12,5 C 0,0 km/h (0 Bft)
02.06.2012 08:25 12,3 C 94 % 0,0 l/m 0,0 km/h (0 Bft) W-SW 247 11,4 C 12,7 C 0,0 km/h (0 Bft)
02.06.2012 08:30 12,4 C 94 % 0,0 l/m 0,0 km/h (0 Bft) N 360 11,5 C 12,9 C 0,0 km/h (0 Bft)
02.06.2012 08:35 12,4 C 94 % 0,0 l/m 0,0 km/h (0 Bft) S 180 11,5 C 13,0 C 0,0 km/h (0 Bft)
02.06.2012 08:40 12,6 C 94 % 0,0 l/m 0,0 km/h (0 Bft) SO 135 11,7 C 13,2 C 0,0 km/h (0 Bft)
02.06.2012 08:45 12,9 C 94 % 0,0 l/m 0,3 km/h (0 Bft) O-SO 112 12,0 C 13,5 C 2,1 km/h (1 Bft)
02.06.2012 08:50 13,1 C 93 % 0,0 l/m 0,6 km/h (0 Bft) O-SO 112 12,0 C 13,9 C 3,2 km/h (1 Bft)
02.06.2012 08:55 13,1 C 93 % 0,0 l/m 1,0 km/h (0 Bft) S 180 12,0 C 14,1 C 0,0 km/h (0 Bft)
02.06.2012 09:00 13,2 C 93 % 0,0 l/m 1,3 km/h (1 Bft) S 180 12,1 C 14,3 C 0,0 km/h (0 Bft)
02.06.2012 09:05 13,3 C 93 % 0,0 l/m 1,1 km/h (1 Bft) S-SO 157 12,2 C 14,4 C 2,4 km/h (1 Bft)
02.06.2012 09:10 13,4 C 92 % 0,0 l/m 1,3 km/h (1 Bft) SO 135 12,1 C 14,4 C 2,4 km/h (1 Bft)
02.06.2012 09:15 13,4 C 92 % 0,0 l/m 1,3 km/h (1 Bft) S 180 12,1 C 14,6 C 0,0 km/h (0 Bft)
02.06.2012 09:20 13,7 C 92 % 0,0 l/m 0,6 km/h (0 Bft) S 180 12,4 C 14,8 C 0,0 km/h (0 Bft)
02.06.2012 09:25 13,8 C 91 % 0,0 l/m 0,3 km/h (0 Bft) N-NW 337 12,4 C 15,0 C 0,0 km/h (0 Bft)
02.06.2012 09:30 13,7 C 91 % 0,0 l/m 0,3 km/h (0 Bft) O 90 12,3 C 15,3 C 0,0 km/h (0 Bft)
02.06.2012 09:35 13,9 C 89 % 0,0 l/m 0,2 km/h (0 Bft) W-NW 292 12,1 C 15,6 C 0,0 km/h (0 Bft)
02.06.2012 09:40 14,2 C 87 % 0,0 l/m 0,0 km/h (0 Bft) N-NW 337 12,1 C 16,0 C 0,0 km/h (0 Bft)
02.06.2012 09:45 14,4 C 86 % 0,0 l/m 0,3 km/h (0 Bft) W 270 12,1 C 16,4 C 0,0 km/h (0 Bft)
02.06.2012 09:50 15,2 C 83 % 0,0 l/m 1,0 km/h (0 Bft) N-NW 337 12,3 C 16,6 C 2,3 km/h (1 Bft)
02.06.2012 09:55 15,1 C 82 % 0,0 l/m 1,1 km/h (1 Bft) O-SO 112 12,0 C 17,3 C 3,1 km/h (1 Bft)
02.06.2012 10:00 15,0 C 85 % 0,0 l/m 0,8 km/h (0 Bft) O-SO 112 12,5 C 17,5 C 4,5 km/h (1 Bft)
02.06.2012 10:05 14,9 C 86 % 0,0 l/m 1,0 km/h (0 Bft) O-SO 112 12,6 C 17,4 C 0,0 km/h (0 Bft)
02.06.2012 10:10 15,1 C 82 % 0,0 l/m 0,8 km/h (0 Bft) N-NW 337 12,0 C 17,6 C 4,8 km/h (1 Bft)
02.06.2012 10:15 15,0 C 80 % 0,0 l/m 1,1 km/h (1 Bft) N-NO 22 11,6 C 17,6 C 0,0 km/h (0 Bft)
02.06.2012 10:20 15,1 C 85 % 0,0 l/m 1,1 km/h (1 Bft) NO 45 12,6 C 17,5 C 5,1 km/h (1 Bft)
02.06.2012 10:25 15,3 C 86 % 0,0 l/m 0,0 km/h (0 Bft) NW 315 13,0 C 17,6 C 0,0 km/h (0 Bft)
02.06.2012 10:30 15,4 C 84 % 0,0 l/m 1,1 km/h (1 Bft) W-SW 247 12,7 C 17,7 C 7,4 km/h (2 Bft)
02.06.2012 10:35 15,5 C 84 % 0,0 l/m 2,3 km/h (1 Bft) NW 315 12,8 C 17,4 C 2,9 km/h (1 Bft)
02.06.2012 10:40 15,6 C 82 % 0,0 l/m 2,3 km/h (1 Bft) N 360 12,5 C 17,6 C 1,8 km/h (1 Bft)
02.06.2012 10:45 15,5 C 82 % 0,0 l/m 1,3 km/h (1 Bft) S-SO 157 12,4 C 17,7 C 0,0 km/h (0 Bft)
02.06.2012 10:50 15,1 C 82 % 0,0 l/m 0,5 km/h (0 Bft) O-SO 112 12,0 C 17,4 C 0,0 km/h (0 Bft)
02.06.2012 10:55 15,5 C 82 % 0,0 l/m 0,2 km/h (0 Bft) N-NW 337 12,4 C 17,5 C 0,0 km/h (0 Bft)
02.06.2012 11:00 15,3 C 79 % 0,0 l/m 1,0 km/h (0 Bft) N 360 11,7 C 17,4 C 0,0 km/h (0 Bft)
02.06.2012 11:05 15,1 C 83 % 0,0 l/m 1,6 km/h (1 Bft) W 270 12,2 C 17,1 C 0,0 km/h (0 Bft)
02.06.2012 11:10 15,2 C 84 % 0,0 l/m 1,8 km/h (1 Bft) W 270 12,5 C 16,6 C 2,1 km/h (1 Bft)
02.06.2012 11:15 15,0 C 82 % 0,0 l/m 2,3 km/h (1 Bft) W-NW 292 12,0 C 16,4 C 3,5 km/h (1 Bft)
02.06.2012 11:20 15,0 C 80 % 0,0 l/m 2,1 km/h (1 Bft) W-NW 292 11,6 C 16,4 C 2,3 km/h (1 Bft)
02.06.2012 11:25 15,4 C 80 % 0,0 l/m 1,9 km/h (1 Bft) W-NW 292 12,0 C 16,6 C 2,9 km/h (1 Bft)
02.06.2012 11:30 15,8 C 81 % 0,0 l/m 1,4 km/h (1 Bft) NW 315 12,5 C 17,0 C 0,0 km/h (0 Bft)
02.06.2012 11:35 16,2 C 80 % 0,0 l/m 1,6 km/h (1 Bft) S 180 12,7 C 17,5 C 2,7 km/h (1 Bft)
02.06.2012 11:40 16,2 C 79 % 0,0 l/m 2,4 km/h (1 Bft) W-NW 292 12,6 C 17,9 C 3,1 km/h (1 Bft)
02.06.2012 11:45 16,5 C 77 % 0,0 l/m 2,9 km/h (1 Bft) N-NW 337 12,5 C 18,0 C 2,6 km/h (1 Bft)
02.06.2012 11:50 16,7 C 77 % 0,0 l/m 3,1 km/h (1 Bft) W-NW 292 12,6 C 18,4 C 8,5 km/h (2 Bft)
02.06.2012 11:55 16,9 C 77 % 0,0 l/m 2,3 km/h (1 Bft) O-SO 112 12,8 C 18,6 C 2,1 km/h (1 Bft)
02.06.2012 12:00 16,7 C 74 % 0,0 l/m 2,3 km/h (1 Bft) NO 45 12,0 C 18,9 C 2,4 km/h (1 Bft)
02.06.2012 12:05 16,9 C 76 % 0,0 l/m 1,9 km/h (1 Bft) W 270 12,6 C 18,9 C 2,1 km/h (1 Bft)
02.06.2012 12:10 16,8 C 75 % 0,0 l/m 3,1 km/h (1 Bft) W-SW 247 12,3 C 18,7 C 9,3 km/h (2 Bft)
02.06.2012 12:15 16,6 C 73 % 0,0 l/m 4,5 km/h (1 Bft) NW 315 11,7 C 18,3 C 2,6 km/h (1 Bft)
02.06.2012 12:20 17,1 C 75 % 0,0 l/m 3,2 km/h (1 Bft) N 360 12,6 C 18,6 C 2,1 km/h (1 Bft)
02.06.2012 12:25 17,2 C 75 % 0,0 l/m 2,3 km/h (1 Bft) W 270 12,7 C 19,0 C 4,7 km/h (1 Bft)
02.06.2012 12:30 17,1 C 73 % 0,0 l/m 3,2 km/h (1 Bft) W-NW 292 12,2 C 19,1 C 7,2 km/h (2 Bft)
02.06.2012 12:35 16,7 C 74 % 0,0 l/m 3,7 km/h (1 Bft) N-NW 337 12,0 C 18,7 C 3,5 km/h (1 Bft)
02.06.2012 12:40 17,2 C 74 % 0,0 l/m 4,0 km/h (1 Bft) N-NW 337 12,5 C 18,6 C 5,5 km/h (1 Bft)
02.06.2012 12:45 17,3 C 72 % 0,0 l/m 4,5 km/h (1 Bft) W 270 12,2 C 19,0 C 5,3 km/h (1 Bft)
02.06.2012 12:50 18,0 C 74 % 0,0 l/m 3,9 km/h (1 Bft) N-NW 337 13,3 C 19,4 C 10,1 km/h (2 Bft)
02.06.2012 12:55 17,9 C 70 % 0,0 l/m 3,4 km/h (1 Bft) W 270 12,3 C 19,8 C 3,1 km/h (1 Bft)
02.06.2012 13:00 18,2 C 69 % 0,0 l/m 3,7 km/h (1 Bft) NW 315 12,4 C 20,1 C 6,0 km/h (2 Bft)
02.06.2012 13:05 18,2 C 69 % 0,0 l/m 3,5 km/h (1 Bft) W-NW 292 12,4 C 20,4 C 7,2 km/h (2 Bft)
02.06.2012 13:10 18,7 C 68 % 0,0 l/m 3,2 km/h (1 Bft) W-SW 247 12,7 C 21,0 C 4,5 km/h (1 Bft)
02.06.2012 13:15 19,3 C 65 % 0,0 l/m 3,9 km/h (1 Bft) W-SW 247 12,6 C 21,4 C 7,1 km/h (2 Bft)
02.06.2012 13:20 19,6 C 64 % 0,0 l/m 3,5 km/h (1 Bft) NW 315 12,6 C 22,0 C 6,8 km/h (2 Bft)
02.06.2012 13:25 20,0 C 66 % 0,0 l/m 2,9 km/h (1 Bft) W-NW 292 13,4 C 22,4 C 2,3 km/h (1 Bft)
02.06.2012 13:30 18,9 C 65 % 0,0 l/m 3,2 km/h (1 Bft) W-NW 292 12,2 C 22,8 C 5,5 km/h (1 Bft)
02.06.2012 13:35 18,3 C 67 % 0,0 l/m 2,9 km/h (1 Bft) NO 45 12,1 C 22,1 C 0,0 km/h (0 Bft)
02.06.2012 13:40 19,1 C 64 % 0,0 l/m 2,7 km/h (1 Bft) N-NW 337 12,1 C 21,7 C 3,9 km/h (1 Bft)
02.06.2012 13:45 19,1 C 65 % 0,0 l/m 2,6 km/h (1 Bft) W 270 12,4 C 21,8 C 4,7 km/h (1 Bft)
02.06.2012 13:50 18,9 C 64 % 0,0 l/m 3,7 km/h (1 Bft) N-NW 337 11,9 C 21,9 C 4,3 km/h (1 Bft)
02.06.2012 13:55 19,7 C 65 % 0,0 l/m 3,2 km/h (1 Bft) NO 45 12,9 C 22,0 C 0,0 km/h (0 Bft)
02.06.2012 14:00 19,3 C 65 % 0,0 l/m 3,2 km/h (1 Bft) NO 45 12,6 C 22,0 C 2,6 km/h (1 Bft)
02.06.2012 14:05 19,9 C 66 % 0,0 l/m 2,7 km/h (1 Bft) SW 225 13,4 C 22,0 C 1,8 km/h (1 Bft)
02.06.2012 14:10 20,2 C 64 % 0,0 l/m 1,9 km/h (1 Bft) W-NW 292 13,2 C 22,3 C 5,0 km/h (1 Bft)
02.06.2012 14:15 20,2 C 62 % 0,0 l/m 2,6 km/h (1 Bft) N-NW 337 12,7 C 22,9 C 2,7 km/h (1 Bft)
02.06.2012 14:20 20,3 C 63 % 0,0 l/m 2,9 km/h (1 Bft) NW 315 13,0 C 23,3 C 6,1 km/h (2 Bft)
02.06.2012 14:25 20,0 C 63 % 0,0 l/m 2,6 km/h (1 Bft) SO 135 12,7 C 23,2 C 2,6 km/h (1 Bft)
02.06.2012 14:30 20,6 C 61 % 0,0 l/m 2,3 km/h (1 Bft) N-NW 337 12,8 C 23,4 C 0,0 km/h (0 Bft)
02.06.2012 14:35 21,2 C 59 % 0,0 l/m 1,4 km/h (1 Bft) N-NO 22 12,9 C 24,3 C 4,2 km/h (1 Bft)
02.06.2012 14:40 21,8 C 61 % 0,0 l/m 1,8 km/h (1 Bft) W-SW 247 13,9 C 24,6 C 2,7 km/h (1 Bft)
02.06.2012 14:45 21,3 C 59 % 0,0 l/m 3,1 km/h (1 Bft) W-NW 292 13,0 C 25,0 C 3,9 km/h (1 Bft)
02.06.2012 14:50 21,6 C 59 % 0,0 l/m 3,4 km/h (1 Bft) N 360 13,2 C 24,9 C 3,5 km/h (1 Bft)
02.06.2012 14:55 20,6 C 59 % 0,0 l/m 3,2 km/h (1 Bft) W-SW 247 12,3 C 24,5 C 2,3 km/h (1 Bft)
02.06.2012 15:00 22,4 C 59 % 0,0 l/m 1,9 km/h (1 Bft) O 90 14,0 C 24,7 C 1,6 km/h (1 Bft)
02.06.2012 15:05 22,9 C 56 % 0,0 l/m 1,3 km/h (1 Bft) W 270 13,6 C 25,9 C 1,8 km/h (1 Bft)
02.06.2012 15:10 22,9 C 55 % 0,0 l/m 2,6 km/h (1 Bft) S-SW 202 13,4 C 26,3 C 9,7 km/h (2 Bft)
02.06.2012 15:15 22,2 C 58 % 0,0 l/m 3,7 km/h (1 Bft) O-SO 112 13,5 C 25,9 C 3,2 km/h (1 Bft)
02.06.2012 15:20 22,7 C 57 % 0,0 l/m 3,5 km/h (1 Bft) W-SW 247 13,7 C 25,5 C 3,4 km/h (1 Bft)
02.06.2012 15:25 23,2 C 57 % 0,0 l/m 2,1 km/h (1 Bft) S-SO 157 14,2 C 26,0 C 0,0 km/h (0 Bft)
02.06.2012 15:30 23,7 C 55 % 0,0 l/m 3,1 km/h (1 Bft) S-SO 157 14,1 C 26,4 C 6,8 km/h (2 Bft)
02.06.2012 15:35 23,9 C 52 % 0,0 l/m 3,9 km/h (1 Bft) S 180 13,4 C 26,5 C 6,9 km/h (2 Bft)
02.06.2012 15:40 23,1 C 52 % 0,0 l/m 5,6 km/h (1 Bft) S 180 12,7 C 25,4 C 10,8 km/h (2 Bft)
02.06.2012 15:45 23,7 C 51 % 0,0 l/m 6,0 km/h (2 Bft) S-SO 157 13,0 C 25,2 C 10,3 km/h (2 Bft)
02.06.2012 15:50 23,6 C 50 % 0,0 l/m 6,4 km/h (2 Bft) S-SO 157 12,6 C 25,5 C 7,4 km/h (2 Bft)
02.06.2012 15:55 23,8 C 52 % 0,0 l/m 6,4 km/h (2 Bft) SW 225 13,3 C 25,4 C 5,5 km/h (1 Bft)
02.06.2012 16:00 23,7 C 50 % 0,0 l/m 5,8 km/h (2 Bft) S-SW 202 12,6 C 25,5 C 8,0 km/h (2 Bft)
02.06.2012 16:05 24,0 C 51 % 0,0 l/m 5,6 km/h (1 Bft) O-SO 112 13,2 C 25,7 C 7,6 km/h (2 Bft)
02.06.2012 16:10 23,8 C 51 % 0,0 l/m 5,6 km/h (1 Bft) S 180 13,0 C 25,3 C 11,1 km/h (2 Bft)
02.06.2012 16:15 23,0 C 51 % 0,0 l/m 5,0 km/h (1 Bft) O-SO 112 12,3 C 25,1 C 5,5 km/h (1 Bft)
02.06.2012 16:20 23,2 C 52 % 0,0 l/m 3,7 km/h (1 Bft) W 270 12,8 C 24,8 C 2,9 km/h (1 Bft)
02.06.2012 16:25 23,0 C 52 % 0,0 l/m 3,2 km/h (1 Bft) S-SW 202 12,6 C 25,1 C 4,8 km/h (1 Bft)
02.06.2012 16:30 23,3 C 49 % 0,0 l/m 2,1 km/h (1 Bft) SO 135 12,0 C 26,0 C 2,3 km/h (1 Bft)
02.06.2012 16:35 23,5 C 51 % 0,0 l/m 2,1 km/h (1 Bft) O 90 12,8 C 27,3 C 2,7 km/h (1 Bft)
02.06.2012 16:40 22,9 C 51 % 0,0 l/m 3,1 km/h (1 Bft) O-SO 112 12,2 C 26,6 C 3,7 km/h (1 Bft)
02.06.2012 16:45 22,7 C 49 % 0,0 l/m 4,3 km/h (1 Bft) S 180 11,4 C 26,5 C 4,3 km/h (1 Bft)
02.06.2012 16:50 22,0 C 53 % 0,0 l/m 4,7 km/h (1 Bft) SO 135 12,0 C 25,4 C 9,5 km/h (2 Bft)
02.06.2012 16:55 22,2 C 53 % 0,0 l/m 4,7 km/h (1 Bft) O-SO 112 12,2 C 24,7 C 3,2 km/h (1 Bft)
02.06.2012 17:00 22,0 C 53 % 0,0 l/m 4,8 km/h (1 Bft) S 180 12,0 C 25,2 C 15,6 km/h (3 Bft)
02.06.2012 17:05 22,1 C 54 % 0,0 l/m 5,0 km/h (1 Bft) W-NW 292 12,3 C 25,1 C 10,3 km/h (2 Bft)
02.06.2012 17:10 22,2 C 54 % 0,0 l/m 5,1 km/h (1 Bft) SO 135 12,4 C 25,9 C 6,8 km/h (2 Bft)
02.06.2012 17:15 21,9 C 54 % 0,0 l/m 5,0 km/h (1 Bft) SO 135 12,2 C 26,0 C 4,0 km/h (1 Bft)
02.06.2012 17:20 21,8 C 54 % 0,0 l/m 4,7 km/h (1 Bft) S-SO 157 12,1 C 26,1 C 5,6 km/h (1 Bft)
02.06.2012 17:25 22,1 C 54 % 0,0 l/m 4,2 km/h (1 Bft) S 180 12,3 C 26,4 C 1,9 km/h (1 Bft)
02.06.2012 17:30 22,3 C 53 % 0,0 l/m 4,5 km/h (1 Bft) S 180 12,2 C 27,0 C 3,9 km/h (1 Bft)
02.06.2012 17:35 22,2 C 53 % 0,0 l/m 5,0 km/h (1 Bft) S 180 12,2 C 27,0 C 6,0 km/h (2 Bft)
02.06.2012 17:40 22,1 C 54 % 0,0 l/m 5,1 km/h (1 Bft) S 180 12,3 C 26,8 C 6,0 km/h (2 Bft)
02.06.2012 17:45 21,9 C 52 % 0,0 l/m 4,7 km/h (1 Bft) W-NW 292 11,6 C 26,7 C 11,1 km/h (2 Bft)
02.06.2012 17:50 21,9 C 54 % 0,0 l/m 5,0 km/h (1 Bft) W-SW 247 12,2 C 26,5 C 5,8 km/h (2 Bft)
02.06.2012 17:55 21,6 C 54 % 0,0 l/m 4,8 km/h (1 Bft) W-NW 292 11,9 C 26,4 C 5,1 km/h (1 Bft)
02.06.2012 18:00 20,9 C 61 % 0,0 l/m 5,1 km/h (1 Bft) W 270 13,1 C 25,6 C 3,5 km/h (1 Bft)
02.06.2012 18:05 20,7 C 61 % 0,0 l/m 6,0 km/h (2 Bft) W-NW 292 12,9 C 25,1 C 8,7 km/h (2 Bft)
02.06.2012 18:10 20,7 C 62 % 0,0 l/m 4,5 km/h (1 Bft) W 270 13,2 C 25,0 C 6,3 km/h (2 Bft)
02.06.2012 18:15 20,7 C 60 % 0,0 l/m 5,3 km/h (1 Bft) W-NW 292 12,7 C 24,8 C 8,5 km/h (2 Bft)
02.06.2012 18:20 20,9 C 61 % 0,0 l/m 6,3 km/h (2 Bft) W 270 13,1 C 24,4 C 8,4 km/h (2 Bft)
02.06.2012 18:25 21,1 C 59 % 0,0 l/m 5,5 km/h (1 Bft) W-SW 247 12,8 C 24,4 C 5,8 km/h (2 Bft)
02.06.2012 18:30 20,8 C 59 % 0,0 l/m 5,1 km/h (1 Bft) W-SW 247 12,5 C 24,5 C 6,6 km/h (2 Bft)
02.06.2012 18:35 20,8 C 61 % 0,0 l/m 4,8 km/h (1 Bft) W 270 13,0 C 24,4 C 6,9 km/h (2 Bft)
02.06.2012 18:40 20,7 C 59 % 0,0 l/m 4,3 km/h (1 Bft) W-NW 292 12,4 C 24,4 C 9,2 km/h (2 Bft)
02.06.2012 18:45 20,6 C 61 % 0,0 l/m 4,3 km/h (1 Bft) W 270 12,8 C 24,4 C 4,0 km/h (1 Bft)
02.06.2012 18:50 20,6 C 60 % 0,0 l/m 4,3 km/h (1 Bft) W-SW 247 12,6 C 24,5 C 3,7 km/h (1 Bft)
02.06.2012 18:55 20,7 C 61 % 0,0 l/m 4,0 km/h (1 Bft) W 270 12,9 C 24,6 C 6,4 km/h (2 Bft)
02.06.2012 19:00 20,5 C 61 % 0,0 l/m 3,4 km/h (1 Bft) W-SW 247 12,7 C 24,9 C 5,0 km/h (1 Bft)
02.06.2012 19:05 20,4 C 62 % 0,0 l/m 3,5 km/h (1 Bft) W-NW 292 12,9 C 24,9 C 2,9 km/h (1 Bft)
02.06.2012 19:10 20,2 C 61 % 0,0 l/m 4,2 km/h (1 Bft) N-NW 337 12,4 C 24,5 C 2,3 km/h (1 Bft)
02.06.2012 19:15 20,1 C 63 % 0,0 l/m 4,3 km/h (1 Bft) W-NW 292 12,8 C 24,3 C 5,3 km/h (1 Bft)
02.06.2012 19:20 20,1 C 61 % 0,0 l/m 4,8 km/h (1 Bft) W 270 12,3 C 23,9 C 6,9 km/h (2 Bft)
02.06.2012 19:25 19,8 C 62 % 0,0 l/m 4,7 km/h (1 Bft) S 180 12,3 C 23,4 C 3,9 km/h (1 Bft)
02.06.2012 19:30 19,4 C 64 % 0,0 l/m 3,9 km/h (1 Bft) SO 135 12,4 C 22,6 C 2,6 km/h (1 Bft)
02.06.2012 19:35 19,0 C 65 % 0,0 l/m 3,2 km/h (1 Bft) NW 315 12,3 C 21,7 C 4,8 km/h (1 Bft)
02.06.2012 19:40 18,5 C 67 % 0,0 l/m 1,6 km/h (1 Bft) O 90 12,3 C 20,6 C 0,0 km/h (0 Bft)
02.06.2012 19:45 18,2 C 68 % 0,0 l/m 0,8 km/h (0 Bft) N 360 12,2 C 20,1 C 0,0 km/h (0 Bft)
02.06.2012 19:50 18,1 C 69 % 0,0 l/m 0,6 km/h (0 Bft) W-SW 247 12,3 C 20,5 C 1,8 km/h (1 Bft)
02.06.2012 19:55 18,2 C 69 % 0,0 l/m 0,3 km/h (0 Bft) N-NW 337 12,4 C 21,1 C 0,0 km/h (0 Bft)
02.06.2012 20:00 18,3 C 70 % 0,0 l/m 1,1 km/h (1 Bft) W-NW 292 12,7 C 21,5 C 4,2 km/h (1 Bft)
02.06.2012 20:05 18,1 C 70 % 0,0 l/m 1,8 km/h (1 Bft) N 360 12,5 C 21,5 C 0,0 km/h (0 Bft)
02.06.2012 20:10 17,5 C 70 % 0,0 l/m 1,1 km/h (1 Bft) N-NO 22 12,0 C 20,5 C 0,0 km/h (0 Bft)
02.06.2012 20:15 17,2 C 70 % 0,0 l/m 0,3 km/h (0 Bft) N 360 11,7 C 19,6 C 0,0 km/h (0 Bft)
02.06.2012 20:20 17,0 C 70 % 0,0 l/m 0,0 km/h (0 Bft) NO 45 11,5 C 18,5 C 0,0 km/h (0 Bft)
02.06.2012 20:25 16,9 C 71 % 0,0 l/m 0,0 km/h (0 Bft) N 360 11,6 C 18,1 C 0,0 km/h (0 Bft)
02.06.2012 20:30 16,8 C 71 % 0,0 l/m 0,0 km/h (0 Bft) SO 135 11,5 C 18,3 C 0,0 km/h (0 Bft)
02.06.2012 20:35 16,5 C 72 % 0,0 l/m 0,0 km/h (0 Bft) NO 45 11,4 C 18,7 C 0,0 km/h (0 Bft)
02.06.2012 20:40 16,3 C 73 % 0,0 l/m 0,0 km/h (0 Bft) N-NW 337 11,4 C 18,6 C 0,0 km/h (0 Bft)
02.06.2012 20:45 16,3 C 73 % 0,0 l/m 0,0 km/h (0 Bft) NO 45 11,4 C 17,9 C 0,0 km/h (0 Bft)
02.06.2012 20:50 16,1 C 73 % 0,0 l/m 0,0 km/h (0 Bft) O-NO 67 11,3 C 16,9 C 0,0 km/h (0 Bft)
02.06.2012 20:55 15,9 C 75 % 0,0 l/m 0,0 km/h (0 Bft) N 360 11,5 C 16,5 C 0,0 km/h (0 Bft)
02.06.2012 21:00 15,7 C 76 % 0,0 l/m 0,0 km/h (0 Bft) NO 45 11,5 C 16,0 C 0,0 km/h (0 Bft)
02.06.2012 21:05 15,5 C 76 % 0,0 l/m 0,0 km/h (0 Bft) N 360 11,3 C 15,6 C 0,0 km/h (0 Bft)
02.06.2012 21:10 14,6 C 77 % 0,0 l/m 0,0 km/h (0 Bft) NO 45 10,6 C 14,9 C 0,0 km/h (0 Bft)
02.06.2012 21:15 14,5 C 78 % 0,0 l/m 0,0 km/h (0 Bft) NO 45 10,7 C 14,6 C 0,0 km/h (0 Bft)
02.06.2012 21:20 13,8 C 79 % 0,0 l/m 0,2 km/h (0 Bft) N-NO 22 10,2 C 14,0 C 0,0 km/h (0 Bft)
02.06.2012 21:25 14,1 C 80 % 0,0 l/m 0,5 km/h (0 Bft) NO 45 10,7 C 13,7 C 1,9 km/h (1 Bft)
02.06.2012 21:30 13,9 C 81 % 0,0 l/m 0,8 km/h (0 Bft) NO 45 10,7 C 13,5 C 1,9 km/h (1 Bft)
02.06.2012 21:35 13,6 C 81 % 0,0 l/m 0,5 km/h (0 Bft) NO 45 10,4 C 13,2 C 0,0 km/h (0 Bft)
02.06.2012 21:40 13,5 C 81 % 0,0 l/m 0,2 km/h (0 Bft) N-NO 22 10,3 C 13,0 C 0,0 km/h (0 Bft)
02.06.2012 21:45 13,3 C 82 % 0,0 l/m 0,0 km/h (0 Bft) NO 45 10,3 C 12,8 C 0,0 km/h (0 Bft)
02.06.2012 21:50 12,9 C 83 % 0,0 l/m 0,0 km/h (0 Bft) N-NO 22 10,1 C 12,5 C 0,0 km/h (0 Bft)
02.06.2012 21:55 12,9 C 85 % 0,0 l/m 0,2 km/h (0 Bft) NO 45 10,4 C 12,3 C 0,0 km/h (0 Bft)
02.06.2012 22:00 13,0 C 84 % 0,0 l/m 0,2 km/h (0 Bft) NO 45 10,4 C 12,3 C 0,0 km/h (0 Bft)
02.06.2012 22:05 12,7 C 85 % 0,0 l/m 0,3 km/h (0 Bft) NO 45 10,2 C 12,2 C 0,0 km/h (0 Bft)
02.06.2012 22:10 12,3 C 85 % 0,0 l/m 0,3 km/h (0 Bft) NO 45 9,9 C 12,0 C 0,0 km/h (0 Bft)
02.06.2012 22:15 12,0 C 85 % 0,0 l/m 0,2 km/h (0 Bft) NO 45 9,6 C 11,9 C 0,0 km/h (0 Bft)
02.06.2012 22:20 12,5 C 86 % 0,0 l/m 0,3 km/h (0 Bft) N-NO 22 10,2 C 11,8 C 1,8 km/h (1 Bft)
02.06.2012 22:25 12,3 C 87 % 0,0 l/m 0,8 km/h (0 Bft) NO 45 10,2 C 11,8 C 1,6 km/h (1 Bft)
02.06.2012 22:30 12,5 C 87 % 0,0 l/m 0,6 km/h (0 Bft) NO 45 10,4 C 11,8 C 1,8 km/h (1 Bft)
02.06.2012 22:35 12,2 C 87 % 0,0 l/m 0,5 km/h (0 Bft) NO 45 10,1 C 11,8 C 0,0 km/h (0 Bft)
02.06.2012 22:40 12,0 C 87 % 0,0 l/m 0,5 km/h (0 Bft) NO 45 9,9 C 11,7 C 0,0 km/h (0 Bft)
02.06.2012 22:45 12,1 C 87 % 0,0 l/m 0,2 km/h (0 Bft) NO 45 10,0 C 11,7 C 1,9 km/h (1 Bft)
02.06.2012 22:50 11,9 C 87 % 0,0 l/m 0,2 km/h (0 Bft) S 180 9,8 C 11,6 C 0,0 km/h (0 Bft)
02.06.2012 22:55 11,8 C 87 % 0,0 l/m 0,0 km/h (0 Bft) S 180 9,7 C 11,5 C 0,0 km/h (0 Bft)
02.06.2012 23:00 11,4 C 87 % 0,0 l/m 0,0 km/h (0 Bft) W-SW 247 9,3 C 11,3 C 0,0 km/h (0 Bft)
02.06.2012 23:05 11,3 C 87 % 0,0 l/m 0,0 km/h (0 Bft) O 90 9,2 C 11,1 C 0,0 km/h (0 Bft)
02.06.2012 23:10 11,3 C 88 % 0,0 l/m 0,0 km/h (0 Bft) O 90 9,4 C 11,0 C 0,0 km/h (0 Bft)
02.06.2012 23:15 11,4 C 88 % 0,0 l/m 0,0 km/h (0 Bft) O 90 9,5 C 11,0 C 0,0 km/h (0 Bft)
02.06.2012 23:20 11,3 C 88 % 0,0 l/m 0,0 km/h (0 Bft) S 180 9,4 C 11,0 C 0,0 km/h (0 Bft)
02.06.2012 23:25 11,2 C 88 % 0,0 l/m 0,0 km/h (0 Bft) SO 135 9,3 C 10,9 C 0,0 km/h (0 Bft)
02.06.2012 23:30 10,9 C 89 % 0,0 l/m 0,0 km/h (0 Bft) N-NO 22 9,2 C 10,9 C 0,0 km/h (0 Bft)
02.06.2012 23:35 10,9 C 89 % 0,0 l/m 0,0 km/h (0 Bft) O 90 9,2 C 10,8 C 0,0 km/h (0 Bft)
02.06.2012 23:40 10,8 C 89 % 0,0 l/m 0,0 km/h (0 Bft) SO 135 9,1 C 10,7 C 0,0 km/h (0 Bft)
02.06.2012 23:45 10,7 C 89 % 0,0 l/m 0,0 km/h (0 Bft) SO 135 9,0 C 10,7 C 0,0 km/h (0 Bft)
02.06.2012 23:50 10,9 C 89 % 0,0 l/m 0,0 km/h (0 Bft) SO 135 9,2 C 10,7 C 0,0 km/h (0 Bft)
02.06.2012 23:55 11,0 C 89 % 0,0 l/m 0,0 km/h (0 Bft) O-SO 112 9,3 C 10,9 C 0,0 km/h (0 Bft)
_ Min-Zeit 23:45 16:45 - 23:55 - - 23:45 23:50 23:55
Minimum _ 10,7 C 49 % - 0,0 km/h (0 Bft) - - 9,0 C 10,7 C 0,0 km/h (0 Bft)
_ Max-Zeit 16:05 08:15 00:55 15:55 - - 15:25 16:35 17:00
Maximum _ 24,0 C 95 % 0,7 l/m 6,4 km/h
SW (2 Bft)
- - 14,2 C 27,3 C 15,6 km/h
S (3 Bft)
Durchschnitt _ 15,2 C 79 % #1,4 l/m 1,5 km/h (1 Bft) W-NW - 11,3 C 16,5 C 2,1 km/h (1 Bft)